Skip Page Navigation
NASA JPL Caltech
NASA Logo - Jet Propulsion Laboratory + View the NASA Portal
+ Center for Near-Earth Object Studies
JPL Home Earth Solar System Stars & Galaxies Technology
JPL Solar System Dynamics
BODIES ORBITS EPHEMERIDES TOOLS PHYSICAL DATA DISCOVERY FAQ SITE MAP
JPL Small-Body Database Browser
Search: [ help ]  
66207 Carpi (1999 CB1)
Classification: Main-belt Asteroid          SPK-ID: 2066207
Ephemeris | Orbit Diagram | Orbital Elements | Mission Design | Physical Parameters | Discovery Circumstances | Close-Approach Data ]

[ show orbit diagram ]
Orbital Elements at Epoch 2459200.5 (2020-Dec-17.0) TDB
Reference: JPL 21 (heliocentric ecliptic J2000)
 Element Value Uncertainty (1-sigma)   Units 
e .03147908966019471 5.9452e-08  
a 2.981648522288463 1.9026e-08 au
q 2.887788941120158 1.8143e-07 au
i 6.850510223460259 5.6831e-06 deg
node 128.8342812021444 4.6741e-05 deg
peri 263.5359147733724 9.9334e-05 deg
M 190.5342157244986 8.8372e-05 deg
tp 2460085.743248047374
(2023-May-21.24324805)
0.00046436 TDB
period 1880.5422620236
5.15
1.8e-05
4.928e-08
d
yr
n .1914341449644497 1.8323e-09 deg/d
Q 3.075508103456769 1.9625e-08 au
  Orbit Determination Parameters
   # obs. used (total)      857  
   data-arc span      8046 days (22.03 yr)  
   first obs. used      1999-02-06  
   last obs. used      2021-02-16  
   planetary ephem.      DE441  
   SB-pert. ephem.      SB441-N16  
   condition code      0  
   norm. resid. RMS      .59459  
   source      ORB  
   producer      Otto Matic  
   solution date      2021-Apr-13 12:20:15  

Additional Information
 Earth MOID = 1.9009 au 
 Jupiter MOID = 2.07205 au 
 T_jup = 3.248 
[ show covariance matrix ]

Ephemeris | Orbit Diagram | Orbital Elements | Mission Design | Physical Parameters | Discovery Circumstances | Close-Approach Data ]

Physical Parameter Table
Parameter Symbol Value Units Sigma Reference Notes
absolute magnitude H 14.62   n/a E2021B10  
diameter diameter 5.831 km 0.111 urn:nasa:pds:neowise_diameters_albedos::2.0[mainbelt] (http://adsabs.harvard.edu/abs/2011ApJ...741...68M)  
geometric albedo albedo 0.082   0.013 urn:nasa:pds:neowise_diameters_albedos::2.0[mainbelt] (http://adsabs.harvard.edu/abs/2011ApJ...741...68M)  

66207 Carpi           Discovered 1999 Feb. 6 at the Cavezzo Observatory.
Carpi, a town in northern Italy, is known worldwide for its textile (especially knitwear) manufacturing and mechanical (especially woodworking) machinery.
NOTE: some special characters may not display properly (any characters within {} are an attempt to place the proper accent above a character)
Reference: 20040504/MPCPages.arcLast Updated: 2004-05-11

[ show close-approach data ]
Alternate Designations
 1999 CB1 = 2000 HO75 = 2001 QJ225 = 2002 UQ26 
Ephemeris | Orbit Diagram | Orbital Elements | Mission Design | Physical Parameters | Discovery Circumstances | Close-Approach Data ]
ABOUT SSD CREDITS/AWARDS PRIVACY/COPYRIGHT GLOSSARY LINKS
FirstGov 2021-Jun-19 20:09 UT
(server date/time)  
NASA Home Page
Site Manager:   Ryan S. Park
Webmaster  Alan B. Chamberlin